Weather History for KOVS - March, 2012

Change the Weather History Date:

Sunday, March 11, 2012

  Actual Average (KPDC) Record (KPDC)
Temperature  
Mean Temperature 52 °F -  
Max Temperature 66 °F 44 °F 66 °F (1990)
Min Temperature 39 °F 25 °F 0 °F (1979)
Degree Days  
Heating Degree Days 12    
Growing Degree Days 2 (Base 50)    
Moisture  
Dew Point 34 °F    
Average Humidity 52    
Maximum Humidity 89    
Minimum Humidity 21    
Precipitation  
Precipitation 0.10 in - - ()
Sea Level Pressure  
Sea Level Pressure 30.04 in    
Wind  
Wind Speed 6 mph (South)    
Max Wind Speed 10 mph    
Max Gust Speed 22 mph    
Visibility 9 miles    
Events Rain    
Averages and records for this station are not official NWS values.
T = Trace of Precipitation, MM = Missing Value Source: NWS Daily Summary

Daily Weather History Graph

Daily Weather History Graph

Search for Another Location

Airport or City:

Trip Planner

Search our weather history database for the weather conditions in past years. The results will help you decide how hot, cold, wet, or windy it might be!

Date:

Astronomy

Mar. 11, 2012 Rise Set
Actual Time 7:20 AM CDT 7:04 PM CDT
Civil Twilight 6:52 AM CDT 7:33 PM CDT
Nautical Twilight 6:19 AM CDT 8:06 PM CDT
Astronomical Twilight 5:46 AM CDT 8:39 PM CDT
Moon 11:38 PM CDT (3/11) 8:48 AM CDT (3/11)
Length of Visible Light 12h 40m
Length of Day
11h 43m
Waning Gibbous, 85% of the Moon is Illuminated
Mar 11
Waning Gibbous
Mar 14
Last Quarter
Mar 22
New
Mar 30
First Quarter
Apr 6
Full

Hourly Weather History & Observations

Time (CDT) Temp. Windchill Dew Point Humidity Pressure Visibility Wind Dir Wind Speed Gust Speed Precip Events Conditions
12:53 AM 48.9 °F - 30.0 °F 48% 30.14 in 10.0 mi SSW 6.9 mph - N/A   Clear
1:53 AM 46.0 °F 42.5 °F 30.0 °F 54% 30.13 in 10.0 mi SSW 6.9 mph - N/A   Clear
3:53 AM 41.0 °F 39.0 °F 30.9 °F 67% 30.13 in 10.0 mi SSW 3.5 mph - N/A   Clear
4:53 AM 39.9 °F 35.8 °F 30.9 °F 70% 30.14 in 10.0 mi SSW 5.8 mph - N/A   Clear
5:53 AM 45.0 °F 41.8 °F 30.0 °F 56% 30.14 in 10.0 mi South 5.8 mph - N/A   Clear
7:53 AM 39.0 °F - 28.0 °F 65% 30.18 in 10.0 mi Calm Calm - N/A   Clear
8:53 AM 42.1 °F - 32.0 °F 67% 30.19 in 10.0 mi Calm Calm - N/A   Clear
9:53 AM 50.0 °F - 30.0 °F 46% 30.18 in 10.0 mi Variable 3.5 mph - N/A   Clear
10:53 AM 57.9 °F - 28.0 °F 32% 30.17 in 10.0 mi SW 6.9 mph - N/A   Clear
11:53 AM 63.0 °F - 27.0 °F 26% 30.14 in 10.0 mi SSW 8.1 mph - N/A   Clear
1:53 PM 64.9 °F - 26.1 °F 23% 30.10 in 10.0 mi South 8.1 mph - N/A   Clear
2:53 PM 66.0 °F - 25.0 °F 21% 30.06 in 10.0 mi SSW 9.2 mph 21.9 mph N/A   Clear
3:53 PM 64.0 °F - 28.0 °F 26% 30.04 in 10.0 mi South 10.4 mph - N/A   Clear
4:53 PM 64.0 °F - 27.0 °F 25% 30.03 in 10.0 mi SSE 8.1 mph 17.3 mph N/A   Clear
5:53 PM 62.1 °F - 28.9 °F 29% 30.01 in 10.0 mi South 8.1 mph - N/A   Clear
6:53 PM 60.1 °F - 30.0 °F 32% 30.00 in 10.0 mi Calm Calm - N/A   Mostly Cloudy
8:53 PM 60.1 °F - 33.1 °F 36% 29.96 in 10.0 mi Variable 3.5 mph - N/A   Overcast
9:53 PM 60.1 °F - 37.0 °F 42% 29.93 in 10.0 mi Variable 6.9 mph - N/A   Overcast
10:53 PM 59.0 °F - 45.0 °F 60% 29.91 in 10.0 mi Variable 4.6 mph 20.7 mph N/A   Overcast
11:01 PM 57.2 °F - 46.4 °F 67% 29.91 in 10.0 mi South 9.2 mph - N/A   Overcast
11:26 PM 53.6 °F - 48.2 °F 82% 29.90 in 5.0 mi Variable 3.5 mph - 0.02 in Rain Rain
11:53 PM 53.1 °F - 48.9 °F 86% 29.90 in 4.0 mi SSE 5.8 mph - 0.06 in Rain Rain
12:44 AM 51.8 °F - 48.2 °F 88% 29.86 in 5.0 mi SSE 9.2 mph 17.3 mph 0.03 in Rain Light Rain
12:53 AM 52.0 °F - 48.9 °F 89% 29.86 in 3.0 mi South 10.4 mph 19.6 mph 0.04 in Rain Light Rain